This is the latest recevied weather packets stored in our database for station/object K7KAR-2. If no packets are shown the sender has not sent any weather packets the latest 10 day(s).
| Time | Temp. | Humidity | Pressure | Rain* | Wind** | Luminosity | Snow |
|---|---|---|---|---|---|---|---|
| 1787912610 | 16.67° C | 69% | 1013.4 hPa | 0 mm | - | 0 W/m² | - |
| 1787912311 | 16.67° C | 69% | 1013.5 hPa | 0 mm | - | 0 W/m² | - |
| 1787912009 | 17.22° C | 68% | 1013.4 hPa | 0 mm | - | 0 W/m² | - |
| 1787911705 | 17.22° C | 66% | 1013.3 hPa | 0 mm | - | 0 W/m² | - |
| 1787911405 | 17.78° C | 66% | 1013 hPa | 0 mm | - | 0 W/m² | - |
| 1787911101 | 17.78° C | 65% | 1013.5 hPa | 0 mm | - | 0 W/m² | - |
| 1787910801 | 17.78° C | 64% | 1013.4 hPa | 0 mm | - | 0 W/m² | - |
| 1787910496 | 17.78° C | 65% | 1013.4 hPa | 0 mm | - | 0 W/m² | - |
| 1787910192 | 17.78° C | 64% | 1013.3 hPa | 0 mm | - | 0 W/m² | - |
| 1787909890 | 17.78° C | 63% | 1013.4 hPa | 0 mm | - | 0 W/m² | - |
| 1787909589 | 17.78° C | 64% | 1013.4 hPa | 0 mm | - | 0 W/m² | - |
| 1787909283 | 17.78° C | 65% | 1013.4 hPa | 0 mm | - | 0 W/m² | - |
| 1787908979 | 17.78° C | 66% | 1013.4 hPa | 0 mm | - | 0 W/m² | - |
| 1787908678 | 17.22° C | 66% | 1013.3 hPa | 0 mm | - | 0 W/m² | - |
| 1787908372 | 17.78° C | 65% | 1013.7 hPa | 0 mm | - | 0 W/m² | - |
| 1787908071 | 17.78° C | 64% | 1013.6 hPa | 0 mm | - | 0 W/m² | - |
| 1787907768 | 17.78° C | 64% | 1013.9 hPa | 0 mm | - | 0 W/m² | - |
| 1787907471 | 18.33° C | 64% | 1013.8 hPa | 0 mm | - | 0 W/m² | - |
| 1787907158 | 18.33° C | 63% | 1013.9 hPa | 0 mm | - | 0 W/m² | - |
| 1787906853 | 17.78° C | 63% | 1013.9 hPa | 0 mm | - | 0 W/m² | - |
| 1787906550 | 17.22° C | 66% | 1014.3 hPa | 0 mm | - | 0 W/m² | - |
| 1787906250 | 16.67° C | 67% | 1014.3 hPa | 0 mm | - | 0 W/m² | - |
| 1787905944 | 17.22° C | 67% | 1014.1 hPa | 0 mm | - | 0 W/m² | - |
| 1787905640 | 17.78° C | 64% | 1014 hPa | 0 mm | - | 0 W/m² | - |
| 1787905336 | 17.78° C | 63% | 1013.9 hPa | 0 mm | - | 0 W/m² | - |
* Rain latest hour (hover to see other rain measurements)
** Current wind speed in m/s (hover to see current wind gust speed)